Location: Mount Tamalpais State Park
(37.9108°N, 122.6128°W)
Time: 03:26:53
(UTC-07:00)

Cosmos 1814 Rocket - Visible Passes

Search period start: 23 April 2014 00:00
Search period end: 03 May 2014 00:00
Orbit: 746 x 788 km, 74.1° (Epoch: 23 April)

Date Brightness Start Highest point End Pass type
(mag) Time Alt. Az. Time Alt. Az. Time Alt. Az.
23 Apr 6.3 00:45:37 10° N 00:47:13 20° N 00:47:13 20° N visible
24 Apr 6.2 00:08:44 10° N 00:10:34 19° NNE 00:10:34 19° NNE visible
24 Apr 6.8 01:50:47 10° NW 01:50:48 10° NW 01:50:48 10° NW visible
24 Apr 6.3 23:32:16 10° NNE 23:33:56 15° NE 23:33:56 15° NE visible
25 Apr 6.4 01:13:05 10° NNW 01:14:10 16° NNW 01:14:10 16° NNW visible
26 Apr 6.1 00:35:43 10° NNW 00:37:33 23° NNW 00:37:33 23° NNW visible
26 Apr 5.8 23:58:35 10° N 00:00:57 26° N 00:00:57 26° N visible
27 Apr 5.8 23:21:45 10° N 23:24:23 23° NNE 23:24:23 23° NNE visible
28 Apr 6.5 01:03:41 10° NW 01:04:37 15° NW 01:04:37 15° NW visible
28 Apr 6.0 22:45:20 10° NNE 22:47:49 16° NE 22:47:49 16° NE visible
29 Apr 6.0 00:26:01 10° NNW 00:28:04 24° NW 00:28:04 24° NW visible
29 Apr 5.4 23:48:40 10° NNW 23:51:32 34° NNW 23:51:32 34° NNW visible
30 Apr 5.1 23:11:33 10° N 23:15:01 36° NNE 23:15:01 36° NNE visible
01 May 6.6 00:54:43 10° NW 00:55:16 12° WNW 00:55:16 12° WNW visible
01 May 5.3 22:34:44 10° N 22:38:31 26° NE 22:38:31 26° NE visible
02 May 6.0 00:16:34 10° NW 00:18:46 22° WNW 00:18:46 22° WNW visible
02 May 5.8 21:58:23 10° NNE 22:01:32 16° ENE 22:02:03 16° ENE visible
02 May 5.1 23:38:56 10° NNW 23:42:18 39° NW 23:42:18 39° NW visible
